Weather History for Hartford, CT

Change the Weather History Date:

Tuesday, February 12, 2013

  Actual Average Record
Temperature  
Mean Temperature 41 °F -  
Max Temperature 45 °F 37 °F 61 °F (1981)
Min Temperature 37 °F 15 °F -10 °F (1979)
Degree Days  
Heating Degree Days 24    
Moisture  
Dew Point 28 °F    
Average Humidity 63    
Maximum Humidity 93    
Minimum Humidity 46    
Precipitation  
Precipitation 0.00 in - - ()
Sea Level Pressure  
Sea Level Pressure 29.80 in    
Wind  
Wind Speed 4 mph (WNW)    
Max Wind Speed 13 mph    
Max Gust Speed 20 mph    
Visibility 10 miles    
Events      
Averages and records for this station are not official NWS values.
T = Trace of Precipitation, MM = Missing Value Source: NWS Daily Summary

Daily Weather History Graph

Daily Weather History Graph

Search for Another Location

Airport:

Trip Planner

Search our weather history database for the weather conditions in past years. The results will help you decide how hot, cold, wet, or windy it might be!

Date:

Astronomy

Feb. 12, 2013 Rise Set
Actual Time 6:49 AM EST 5:20 PM EST
Civil Twilight 6:21 AM EST 5:49 PM EST
Nautical Twilight 5:48 AM EST 6:21 PM EST
Astronomical Twilight 5:16 AM EST 6:54 PM EST
Moon 7:42 AM EST (2/12) 8:21 PM EST (2/12)
Length of Visible Light 11h 28m
Length of Day
10h 30m
Waxing Crescent, 7% of the Moon is Illuminated
Feb 12
Waxing Crescent
Feb 17
First Quarter
Feb 25
Full
Mar 4
Last Quarter
Mar 11
New

Hourly Weather History & Observations

Time (EST) Temp. Windchill Dew Point Humidity Pressure Visibility Wind Dir Wind Speed Gust Speed Precip Events Conditions
12:53 AM 37.9 °F - 36.0 °F 93% 29.68 in 10.0 mi Calm Calm - N/A   Mostly Cloudy
1:53 AM 39.0 °F - 33.1 °F 79% 29.70 in 10.0 mi Calm Calm - N/A   Overcast
2:53 AM 39.0 °F 36.8 °F 33.1 °F 79% 29.71 in 10.0 mi West 3.5 mph - N/A   Overcast
3:53 AM 37.9 °F - 32.0 °F 79% 29.70 in 10.0 mi Calm Calm - N/A   Overcast
4:53 AM 37.0 °F 34.5 °F 30.9 °F 79% 29.72 in 10.0 mi WSW 3.5 mph - N/A   Mostly Cloudy
5:53 AM 37.9 °F 34.4 °F 30.9 °F 76% 29.73 in 10.0 mi WSW 4.6 mph - N/A   Overcast
6:53 AM 37.9 °F 34.4 °F 30.9 °F 76% 29.73 in 10.0 mi West 4.6 mph - N/A   Overcast
7:53 AM 39.0 °F 34.8 °F 30.9 °F 73% 29.75 in 10.0 mi WSW 5.8 mph - N/A   Overcast
8:53 AM 41.0 °F 37.1 °F 28.0 °F 60% 29.78 in 10.0 mi West 5.8 mph - N/A   Overcast
9:53 AM 43.0 °F 37.2 °F 27.0 °F 53% 29.78 in 10.0 mi West 10.4 mph 16.1 mph N/A   Mostly Cloudy
10:53 AM 43.0 °F 36.4 °F 27.0 °F 53% 29.79 in 10.0 mi West 12.7 mph 16.1 mph N/A   Overcast
11:53 AM 43.0 °F 37.7 °F 26.1 °F 51% 29.79 in 10.0 mi WNW 9.2 mph - N/A   Overcast
12:53 PM 44.1 °F 37.7 °F 25.0 °F 47% 29.79 in 10.0 mi WNW 12.7 mph - N/A   Mostly Cloudy
1:53 PM 45.0 °F 39.3 °F 25.0 °F 46% 29.80 in 10.0 mi WNW 11.5 mph 19.6 mph N/A   Overcast
2:53 PM 44.1 °F 40.1 °F 25.0 °F 47% 29.82 in 10.0 mi WNW 6.9 mph - N/A   Overcast
3:53 PM 43.0 °F 36.8 °F 26.1 °F 51% 29.81 in 10.0 mi WNW 11.5 mph - N/A   Overcast
4:53 PM 41.0 °F 37.1 °F 26.1 °F 55% 29.82 in 10.0 mi NW 5.8 mph - N/A   Overcast
5:53 PM 39.9 °F 33.9 °F 25.0 °F 55% 29.84 in 10.0 mi NNW 9.2 mph - N/A   Overcast
6:53 PM 39.0 °F 33.4 °F 26.1 °F 60% 29.90 in 10.0 mi West 8.1 mph - N/A   Mostly Cloudy
7:53 PM 39.0 °F - 26.1 °F 60% 29.91 in 10.0 mi Calm Calm - N/A   Overcast
8:53 PM 37.9 °F - 26.1 °F 62% 29.91 in 10.0 mi Calm Calm - N/A   Overcast
9:53 PM 37.0 °F 33.3 °F 25.0 °F 62% 29.89 in 10.0 mi West 4.6 mph - N/A   Overcast
10:53 PM 37.0 °F 33.3 °F 25.0 °F 62% 29.88 in 10.0 mi NW 4.6 mph - N/A   Overcast
11:53 PM 37.0 °F 32.4 °F 23.0 °F 57% 29.90 in 10.0 mi NNW 5.8 mph - N/A   Overcast